Location: *
(2.5500°S, 65.9667°W)
Time: 11:28:42
(UTC+00:00)

Envisat - Visible Passes

Search period start: 22 January 2022 00:00
Search period end: 01 February 2022 00:00
Orbit: 764 x 766 km, 98.2° (Epoch: 21 January)

Date Brightness Start Highest point End Pass type
(mag) Time Alt. Az. Time Alt. Az. Time Alt. Az.
22 Jan 3.2 08:43:37 10° NNE 08:48:39 70° ESE 08:53:42 10° S visible
23 Jan 5.1 08:07:50 10° NE 08:11:54 24° ESE 08:15:57 10° SSE visible
23 Jan 4.2 09:47:04 10° NNW 09:50:38 19° WNW 09:54:14 10° WSW visible
24 Jan 3.0 09:08:55 10° N 09:13:52 55° WNW 09:18:50 10° SSW visible
25 Jan 3.8 08:32:11 10° NNE 08:37:05 50° ESE 08:42:00 10° S visible
26 Jan 5.5 07:57:00 10° ENE 08:00:22 18° ESE 08:03:42 10° SE visible
26 Jan 3.9 09:34:52 10° NNW 09:39:04 27° WNW 09:43:17 10° SW visible
27 Jan 2.8 08:57:14 10° N 09:02:18 77° W 09:07:23 10° SSW visible
28 Jan 4.4 08:20:54 10° NE 08:25:32 36° ESE 08:30:10 10° SSE visible
28 Jan 4.6 10:02:08 10° NW 10:04:17 13° WNW 10:06:27 10° WSW visible
29 Jan 5.9 07:46:38 10° ENE 07:48:49 13° ESE 07:51:00 10° SE visible
29 Jan 3.5 09:22:53 10° NNW 09:27:30 36° WNW 09:32:09 10° SW visible
30 Jan 3.0 08:45:40 10° NNE 08:50:43 77° ESE 08:55:49 10° S visible
31 Jan 4.9 08:09:46 10° NE 08:13:58 27° ESE 08:18:11 10° SSE visible
31 Jan 4.3 09:49:22 10° NW 09:52:43 18° WNW 09:56:04 10° WSW visible
